Location: Lansingburgh
(42.7845°N, 73.6696°W)
Time: 03:26:34
(UTC+00:00)

USA 32 - Pass Details

Date: 24 January 2020
Orbit: 777 x 783 km, 85.0° (Epoch: 29 January)

Event Time Altitude Azimuth Distance (km) Brightness Sun altitude
Rises 22:51:45 0° 184° (S) 3,244 7.5 -10.2°
Reaches altitude 10° 22:54:05 10° 185° (S) 2,320 6.8 -10.6°
Maximum altitude 22:59:18 85° 273° (W) 786 4.1 -11.6°
Drops below altitude 10° 23:04:33 10° 4° (N) 2,337 6.3 -12.5°
Sets 23:06:55 0° 5° (N) 3,270 7.1 -12.9°
